Location: Aressy
(43.2833°N, 0.3167°W)
Time: 21:58:27
(UTC+00:00)

ARGOS - Pass Details

Date: 28 January 2021
Orbit: 821 x 834 km, 98.4° (Epoch: 03 March)

Event Time Altitude Azimuth Distance (km) Brightness Sun altitude
Rises 18:20:57 0° 143° (SE) 3,343 6.1 -13.4°
Reaches altitude 10° 18:23:24 10° 137° (SE) 2,416 5.3 -13.8°
Maximum altitude 18:28:22 41° 68° (ENE) 1,190 3.5 -14.7°
Drops below altitude 10° 18:33:23 10° 0° (N) 2,439 5.5 -15.6°
Sets 18:35:52 0° 354° (N) 3,378 6.3 -16.1°
